Wind_Speed
15 16 17 17 18 19 19 19 19 20 20 21 22 22 23 23 24 24 24 24 24 24 24 24 25 25 25 26 26 25 24 23 23 23 23 22 22 22
16 17 18 19 19 19 19 20 20 21 21 21 21 22 23 23 24 25 24 24 24 24 25 25 25 26 26 27 27 27 26 25 24 24 24 23 23 23
17 18 19 20 20 20 21 21 22 22 22 22 23 24 24 24 23 23 23 24 25 25 24 25 26 26 27 27 27 27 27 27 26 26 25 25 24 24
19 20 20 20 21 22 22 23 23 24 24 23 24 26 25 25 25 24 25 25 26 26 25 25 26 26 27 27 27 27 28 28 27 27 27 26 26 25
20 21 21 21 22 23 24 24 25 25 25 25 26 26 26 26 25 26 27 26 26 27 27 27 26 26 27 28 27 28 29 29 28 28 28 27 27 27
21 22 22 22 23 24 25 25 26 26 26 26 27 27 27 27 28 27 27 27 27 27 27 27 27 26 27 28 28 28 29 29 29 29 28 28 28 28
22 23 24 24 24 25 26 26 26 26 26 26 26 27 28 27 27 27 27 27 27 28 28 28 28 28 27 27 28 29 29 29 30 30 29 29 29 28
23 23 24 25 25 26 27 27 27 27 27 27 27 27 27 27 27 27 27 27 28 28 28 27 28 28 28 28 29 29 29 30 30 30 30 30 29 29
23 23 24 25 26 26 27 28 27 27 27 27 27 27 28 27 27 27 26 26 25 25 26 27 26 27 27 28 28 29 30 30 30 30 30 30 30 29
24 24 25 25 26 26 26 26 26 26 26 26 26 27 27 26 26 26 26 26 25 25 25 25 27 27 28 28 28 29 29 30 30 30 30 30 30 30
25 25 26 26 26 26 26 26 26 26 26 26 26 26 26 25 25 25 26 26 25 25 26 26 27 27 28 28 28 29 29 29 29 30 30 30 30 31
26 26 27 27 27 27 27 27 27 27 26 26 25 25 25 25 25 25 25 25 26 25 26 27 27 28 28 29 29 29 29 28 28 29 29 30 30 30
26 26 27 27 27 27 27 26 26 26 26 25 25 25 25 25 25 26 26 25 25 25 26 27 28 28 28 28 28 28 29 29 28 28 29 29 30 30
26 26 26 27 26 26 26 26 26 26 25 25 25 25 25 25 24 25 25 25 25 25 25 26 27 28 29 29 28 28 28 29 30 30 30 29 30 30
24 24 25 25 25 25 25 25 25 25 24 24 24 24 24 24 24 24 23 23 24 24 24 25 26 27 27 27 28 27 27 28 29 30 30 29 29 29
23 24 25 25 25 26 25 24 24 23 23 23 23 23 23 23 24 24 24 23 23 23 24 25 26 26 25 25 25 26 26 26 27 28 28 28 29 29
25 25 26 27 26 25 24 24 23 23 22 22 22 23 23 24 24 24 24 24 24 24 24 25 25 25 25 24 24 25 26 26 26 27 27 26 27 28
26 26 26 26 25 24 23 23 22 22 22 22 22 23 23 23 23 23 23 24 24 24 24 24 24 24 23 23 24 23 24 25 26 26 26 26 26 26
26 26 26 25 25 24 23 23 22 22 23 23 23 22 22 22 22 22 22 23 23 23 23 23 23 23 23 23 23 23 23 23 24 25 25 26 26 25
26 25 25 25 24 24 23 23 23 22 22 22 21 20 20 20 20 20 21 22 23 23 22 22 22 22 23 23 23 23 23 23 23 24 24 25 24 24
25 24 24 24 24 24 24 24 23 23 22 22 21 20 20 20 20 20 21 22 22 22 21 21 22 22 23 23 24 23 23 23 23 23 23 24 24 24
24 23 24 24 24 24 24 23 23 23 23 22 21 21 20 21 21 22 21 21 21 21 21 20 20 21 22 22 23 23 23 22 22 22 22 22 23 23
24 24 24 24 24 24 23 23 23 23 23 22 22 22 22 22 21 21 21 21 21 21 21 21 21 20 20 21 21 21 21 21 22 22 21 21 23 23
Wind_Direction
288 283 281 280 281 280 278 276 275 275 274 274 273 271 269 269 268 267 268 266 265 264 262 262 260 257 255 255 253 250 251 252 252 251 249 250 251 251
289 288 286 281 281 279 279 277 276 276 275 274 274 273 273 273 272 268 269 266 265 264 264 263 261 256 254 254 253 249 249 250 249 249 249 249 250 251
291 290 289 286 282 280 280 280 279 278 276 276 274 273 273 271 269 267 267 266 263 264 263 263 261 258 257 257 253 249 248 248 249 249 248 248 248 249
294 292 289 289 286 283 282 282 281 280 278 277 277 275 273 271 269 267 267 266 264 262 263 263 261 258 256 255 253 249 247 248 250 249 248 247 248 249
295 294 291 288 288 286 284 283 282 281 280 279 278 277 274 271 269 268 266 264 264 263 263 263 262 259 256 254 252 250 249 249 248 247 247 247 248 249
295 293 292 291 289 288 287 285 284 283 281 281 279 278 277 273 270 268 265 263 263 263 261 259 259 259 256 254 252 250 248 248 247 248 247 247 247 248
296 294 292 291 290 288 287 286 285 283 282 281 280 279 278 276 271 270 266 264 263 262 259 255 255 257 257 254 252 250 249 248 248 248 248 247 246 246
296 295 294 292 291 290 288 286 284 282 281 281 281 280 279 277 273 271 268 266 264 261 259 257 255 254 253 252 250 249 249 248 247 247 247 246 246 247
297 297 296 295 293 291 290 287 284 283 282 282 282 281 280 277 273 270 269 267 266 264 261 259 256 253 251 249 250 250 249 248 248 247 246 246 247 248
300 299 298 296 295 293 292 289 287 285 283 282 281 280 278 276 274 272 269 268 267 265 264 261 258 255 254 252 252 251 251 250 248 246 246 245 245 245
301 300 299 297 296 295 293 291 289 287 284 283 283 281 279 277 276 273 270 267 265 264 263 263 260 257 255 255 254 252 251 250 249 247 245 245 246 247
301 301 299 298 297 296 294 292 291 289 286 284 283 281 279 276 274 273 272 269 266 264 262 262 262 260 257 256 255 252 251 251 249 247 247 248 248 249
301 302 302 301 300 298 296 295 293 291 288 285 283 281 278 277 275 274 271 268 267 266 264 263 261 261 259 258 255 252 250 249 247 245 246 249 250 250
301 302 303 302 300 300 299 298 296 294 290 286 282 279 278 276 276 275 274 270 268 267 266 265 263 261 258 258 256 254 252 250 248 247 247 249 251 251
302 302 305 304 303 303 302 301 299 296 291 286 282 279 278 276 275 274 272 270 268 268 267 265 264 262 259 256 254 254 253 252 249 248 249 250 251 250
306 306 306 307 306 305 303 301 299 297 292 288 284 281 278 276 275 272 270 269 267 267 267 265 263 261 259 257 254 252 252 250 248 248 249 249 250 249
305 306 306 305 305 304 303 302 299 297 293 289 285 282 280 276 274 272 270 269 267 268 268 267 265 262 258 255 253 252 251 250 248 246 247 248 249 249
304 304 304 303 303 302 301 303 301 297 295 292 288 285 282 278 277 275 272 269 267 267 267 265 262 260 257 254 253 253 253 251 248 247 246 246 247 248
305 304 304 304 303 303 302 302 301 300 298 295 292 288 284 280 278 276 273 270 268 267 267 266 261 259 257 254 253 255 257 254 250 247 248 247 247 246
306 305 306 305 304 303 302 301 300 300 300 299 295 290 285 283 280 279 277 274 271 268 267 265 262 259 257 256 254 255 258 257 253 250 248 246 243 243
307 306 306 306 305 305 304 303 301 300 299 298 295 292 289 286 284 281 278 276 274 271 268 264 261 260 258 256 254 255 257 258 256 251 249 248 246 244
309 307 306 306 305 305 304 303 302 300 298 296 294 292 290 287 285 283 281 277 272 270 268 265 262 261 259 256 254 254 256 257 256 252 250 248 245 243
309 309 308 307 305 304 304 303 303 301 298 296 294 292 290 288 285 283 282 277 274 270 267 265 264 262 260 258 256 255 255 254 252 250 251 250 248 244
Height
5827 5827 5826 5825 5824 5823 5822 5822 5821 5820 5819 5817 5816 5815 5814 5813 5812 5811 5811 5811 5811 5810 5810 5810 5811 5811 5812 5813 5814 5815 5817 5818 5820 5821 5822 5823 5824 5825
5823 5822 5821 5819 5818 5817 5816 5815 5814 5813 5812 5811 5809 5808 5807 5806 5805 5804 5804 5803 5803 5803 5803 5803 5803 5804 5804 5805 5806 5807 5809 5811 5813 5814 5815 5817 5818 5819
5818 5816 5815 5813 5812 5811 5809 5808 5807 5806 5805 5803 5802 5801 5799 5798 5797 5796 5796 5796 5796 5796 5796 5796 5796 5796 5796 5797 5798 5799 5802 5803 5805 5807 5808 5810 5811 5812
5812 5811 5809 5807 5806 5804 5803 5801 5799 5798 5797 5796 5794 5793 5791 5790 5790 5789 5789 5788 5788 5788 5788 5788 5787 5787 5788 5789 5790 5792 5793 5795 5797 5799 5801 5803 5804 5805
5807 5805 5803 5801 5800 5798 5796 5794 5792 5791 5789 5788 5787 5785 5784 5782 5782 5781 5781 5780 5780 5780 5780 5780 5779 5779 5780 5781 5782 5784 5786 5788 5789 5791 5793 5795 5796 5797
5801 5799 5797 5795 5793 5791 5789 5787 5785 5784 5782 5780 5779 5777 5776 5774 5774 5772 5772 5772 5772 5772 5771 5771 5772 5772 5772 5773 5775 5776 5778 5779 5781 5783 5784 5786 5788 5790
5795 5792 5790 5788 5786 5784 5782 5780 5778 5776 5774 5773 5771 5769 5768 5766 5765 5764 5763 5763 5763 5763 5763 5763 5763 5764 5765 5765 5767 5768 5770 5771 5773 5774 5776 5778 5780 5782
5789 5786 5783 5781 5778 5776 5774 5772 5770 5768 5766 5764 5763 5761 5759 5758 5756 5756 5755 5755 5754 5754 5754 5754 5754 5755 5756 5757 5758 5760 5761 5763 5764 5766 5768 5770 5772 5774
5782 5779 5777 5774 5771 5768 5766 5764 5761 5759 5758 5756 5754 5752 5751 5749 5748 5747 5747 5746 5746 5745 5745 5746 5746 5747 5747 5748 5749 5751 5752 5754 5755 5757 5759 5762 5764 5766
5775 5772 5769 5766 5763 5761 5758 5755 5753 5751 5749 5747 5746 5744 5742 5740 5739 5739 5738 5738 5737 5737 5736 5737 5737 5738 5739 5740 5741 5742 5743 5745 5747 5749 5751 5753 5755 5757
5767 5764 5761 5759 5756 5753 5750 5747 5745 5742 5740 5738 5737 5735 5733 5732 5731 5730 5729 5729 5729 5729 5728 5729 5729 5730 5731 5732 5733 5734 5735 5736 5738 5740 5742 5744 5746 5748
5760 5757 5754 5751 5747 5744 5742 5739 5736 5734 5732 5730 5728 5726 5725 5724 5723 5722 5721 5720 5720 5720 5720 5720 5720 5721 5722 5723 5724 5725 5726 5728 5729 5731 5733 5735 5738 5739
5753 5749 5746 5743 5739 5736 5733 5730 5728 5725 5723 5721 5720 5718 5716 5715 5714 5713 5712 5712 5712 5712 5712 5712 5712 5712 5713 5714 5715 5716 5718 5720 5721 5723 5724 5727 5729 5731
5745 5742 5738 5735 5731 5728 5725 5722 5719 5716 5714 5712 5711 5709 5708 5706 5705 5705 5704 5703 5703 5703 5703 5703 5703 5703 5704 5705 5706 5708 5709 5711 5712 5714 5716 5718 5720 5722
5737 5734 5730 5726 5723 5720 5717 5713 5710 5708 5705 5703 5702 5700 5699 5698 5697 5696 5696 5695 5695 5695 5695 5694 5694 5695 5695 5696 5698 5699 5700 5702 5703 5705 5707 5709 5711 5713
5730 5726 5722 5719 5715 5712 5709 5705 5702 5699 5697 5695 5693 5691 5690 5689 5688 5688 5687 5687 5687 5687 5687 5686 5686 5687 5688 5688 5689 5691 5692 5694 5695 5697 5698 5701 5703 5705
5722 5719 5715 5711 5708 5705 5702 5698 5695 5691 5689 5687 5685 5683 5682 5681 5680 5679 5679 5679 5679 5679 5679 5678 5678 5679 5680 5681 5681 5683 5684 5685 5687 5688 5690 5692 5694 5696
5715 5712 5708 5704 5701 5698 5694 5691 5687 5684 5682 5679 5677 5675 5674 5673 5672 5671 5670 5670 5670 5670 5670 5671 5671 5671 5672 5673 5674 5675 5676 5677 5678 5680 5682 5684 5686 5688
5708 5704 5701 5697 5694 5691 5687 5684 5681 5678 5675 5672 5670 5668 5666 5665 5664 5663 5663 5662 5662 5662 5662 5662 5663 5663 5664 5665 5667 5667 5668 5669 5671 5672 5674 5676 5678 5681
5700 5697 5693 5690 5687 5683 5680 5677 5674 5671 5668 5665 5663 5661 5659 5658 5657 5656 5655 5655 5655 5654 5655 5655 5655 5656 5657 5658 5659 5660 5661 5662 5663 5665 5666 5668 5671 5673
5692 5689 5686 5683 5680 5676 5673 5670 5667 5664 5662 5659 5657 5655 5653 5651 5650 5649 5648 5648 5647 5647 5647 5648 5648 5648 5649 5650 5651 5653 5654 5655 5656 5657 5659 5661 5663 5666
5686 5682 5679 5676 5673 5670 5667 5663 5660 5658 5655 5652 5650 5648 5646 5645 5643 5642 5641 5641 5640 5640 5640 5640 5640 5640 5641 5642 5643 5645 5646 5647 5649 5650 5652 5654 5656 5659
5679 5676 5673 5669 5666 5663 5660 5656 5653 5651 5648 5646 5643 5641 5639 5637 5636 5635 5634 5633 5633 5633 5633 5633 5633 5633 5634 5635 5636 5637 5639 5640 5641 5643 5645 5647 5649 5652